Meteo pe oră la Dabroszyn

Astăzi, 23 Aprilie, Vineri

Timp Temperatura Precipitaţii Vânt Presiune Umiditate
00:00 +1°C° 0 mm 3 m/s 754 mmHg 86%
01:00 0°C° 0 mm 3 m/s 755 mmHg 87%
02:00 0°C° 0 mm 3 m/s 755 mmHg 89%
03:00 0°C° 0 mm 3 m/s 755 mmHg 91%
04:00 -1°C° 0 mm 3 m/s 755 mmHg 93%
05:00 -1°C° 0 mm 4 m/s 755 mmHg 91%
06:00 0°C° 0 mm 5 m/s 756 mmHg 89%
07:00 +2°C° 0 mm 5 m/s 756 mmHg 88%
08:00 +3°C° 0 mm 6 m/s 756 mmHg 81%
09:00 +4°C° 0 mm 6 m/s 756 mmHg 74%
10:00 +5°C° 0 mm 6 m/s 756 mmHg 67%
11:00 +5°C° 0.2 mm 7 m/s 756 mmHg 68%
12:00 +5°C° 0.2 mm 7 m/s 757 mmHg 69%
13:00 +5°C° 0.2 mm 7 m/s 757 mmHg 70%
14:00 +5°C° 0.2 mm 7 m/s 757 mmHg 71%
15:00 +5°C° 0.2 mm 7 m/s 757 mmHg 72%
16:00 +5°C° 0.2 mm 6 m/s 757 mmHg 73%
17:00 +5°C° 0.2 mm 5 m/s 757 mmHg 75%
18:00 +4°C° 0.2 mm 4 m/s 757 mmHg 78%
19:00 +4°C° 0.2 mm 3 m/s 757 mmHg 80%
20:00 +4°C° 0 mm 2 m/s 757 mmHg 78%
21:00 +4°C° 0 mm 2 m/s 757 mmHg 76%
22:00 +3°C° 0 mm 2 m/s 758 mmHg 74%
23:00 +3°C° 0 mm 2 m/s 758 mmHg 74%

Mâine, 24 Aprilie, Sâmbătă

Timp Temperatura Precipitaţii Vânt Presiune Umiditate
00:00 +2°C° 0 mm 2 m/s 758 mmHg 73%
01:00 +2°C° 0 mm 2 m/s 757 mmHg 72%
02:00 +2°C° 0 mm 2 m/s 757 mmHg 73%
03:00 +1°C° 0 mm 2 m/s 757 mmHg 73%
04:00 0°C° 0 mm 3 m/s 757 mmHg 74%
05:00 +1°C° 0 mm 3 m/s 757 mmHg 72%
06:00 +2°C° 0 mm 3 m/s 757 mmHg 70%
07:00 +3°C° 0 mm 3 m/s 758 mmHg 68%
08:00 +5°C° 0 mm 3 m/s 757 mmHg 64%
09:00 +6°C° 0 mm 4 m/s 757 mmHg 59%
10:00 +8°C° 0 mm 4 m/s 757 mmHg 54%
11:00 +8°C° 0.2 mm 4 m/s 757 mmHg 56%
12:00 +8°C° 0.2 mm 5 m/s 757 mmHg 58%
13:00 +8°C° 0.2 mm 5 m/s 756 mmHg 60%
14:00 +8°C° 0.2 mm 5 m/s 756 mmHg 60%
15:00 +8°C° 0.2 mm 5 m/s 756 mmHg 61%
16:00 +8°C° 0.2 mm 5 m/s 756 mmHg 61%
17:00 +7°C° 0.1 mm 5 m/s 756 mmHg 63%
18:00 +6°C° 0.1 mm 5 m/s 756 mmHg 65%
19:00 +5°C° 0.1 mm 4 m/s 756 mmHg 67%
20:00 +4°C° 0 mm 3 m/s 757 mmHg 70%
21:00 +4°C° 0 mm 2 m/s 757 mmHg 73%
22:00 +3°C° 0 mm 1 m/s 757 mmHg 76%
23:00 +3°C° 0 mm 1 m/s 757 mmHg 76%

Poimâine, 25 Aprilie, Duminică

Timp Temperatura Precipitaţii Vânt Presiune Umiditate
00:00 +1°C° 0 mm 2 m/s 757 mmHg 76%
01:00 -1°C° 0 mm 2 m/s 757 mmHg 76%
02:00 -1°C° 0 mm 2 m/s 757 mmHg 75%
03:00 -2°C° 0 mm 2 m/s 757 mmHg 74%
04:00 -2°C° 0 mm 2 m/s 757 mmHg 73%
05:00 -1°C° 0 mm 3 m/s 758 mmHg 68%
06:00 +1°C° 0 mm 3 m/s 758 mmHg 64%
07:00 +1°C° 0 mm 4 m/s 758 mmHg 60%
08:00 +4°C° 0 mm 4 m/s 758 mmHg 52%
09:00 +5°C° 0 mm 5 m/s 757 mmHg 45%
10:00 +7°C° 0 mm 5 m/s 757 mmHg 37%
11:00 +7°C° 0 mm 6 m/s 757 mmHg 37%
12:00 +7°C° 0 mm 6 m/s 757 mmHg 38%
13:00 +7°C° 0 mm 6 m/s 757 mmHg 38%
14:00 +7°C° 0 mm 6 m/s 757 mmHg 40%
15:00 +7°C° 0 mm 6 m/s 757 mmHg 41%
16:00 +6°C° 0 mm 7 m/s 757 mmHg 43%
17:00 +5°C° 0 mm 6 m/s 757 mmHg 47%
18:00 +3°C° 0 mm 5 m/s 757 mmHg 51%
19:00 +3°C° 0 mm 4 m/s 757 mmHg 55%
20:00 +2°C° 0 mm 3 m/s 757 mmHg 58%
21:00 +1°C° 0 mm 3 m/s 757 mmHg 62%
22:00 0°C° 0 mm 3 m/s 757 mmHg 65%
23:00 -1°C° 0 mm 3 m/s 757 mmHg 66%

26 Aprilie, Luni

Timp Temperatura Precipitaţii Vânt Presiune Umiditate
00:00 -1°C° 0 mm 2 m/s 757 mmHg 67%
01:00 -2°C° 0 mm 2 m/s 757 mmHg 67%
02:00 -2°C° 0 mm 2 m/s 756 mmHg 68%
03:00 -2°C° 0 mm 2 m/s 756 mmHg 68%
04:00 -2°C° 0 mm 3 m/s 756 mmHg 69%
05:00 -1°C° 0 mm 3 m/s 756 mmHg 65%
06:00 +1°C° 0 mm 3 m/s 756 mmHg 62%
07:00 +1°C° 0 mm 4 m/s 756 mmHg 59%
08:00 +4°C° 0 mm 4 m/s 755 mmHg 54%
09:00 +5°C° 0 mm 4 m/s 755 mmHg 48%
10:00 +7°C° 0 mm 4 m/s 755 mmHg 43%
11:00 +7°C° 0 mm 4 m/s 755 mmHg 41%
12:00 +7°C° 0 mm 4 m/s 754 mmHg 39%
13:00 +8°C° 0 mm 4 m/s 754 mmHg 36%
14:00 +8°C° 0 mm 4 m/s 754 mmHg 41%
15:00 +7°C° 0 mm 4 m/s 754 mmHg 46%
16:00 +7°C° 0 mm 4 m/s 754 mmHg 51%
17:00 +7°C° 0 mm 3 m/s 753 mmHg 56%
18:00 +5°C° 0 mm 2 m/s 753 mmHg 61%
19:00 +5°C° 0 mm 1 m/s 753 mmHg 66%
20:00 +3°C° 0 mm 2 m/s 753 mmHg 67%
21:00 +3°C° 0 mm 2 m/s 753 mmHg 68%
22:00 +2°C° 0 mm 2 m/s 753 mmHg 69%
23:00 +1°C° 0 mm 2 m/s 753 mmHg 68%

27 Aprilie, Marţi

Timp Temperatura Precipitaţii Vânt Presiune Umiditate
00:00 +2°C° 0 mm 1 m/s 753 mmHg 68%
01:00 +1°C° 0 mm 1 m/s 753 mmHg 67%
02:00 +1°C° 0 mm 1 m/s 753 mmHg 66%
03:00 +1°C° 0 mm 1 m/s 753 mmHg 66%
04:00 0°C° 0 mm 0 m/s 752 mmHg 65%
05:00 +2°C° 0 mm 1 m/s 752 mmHg 61%
06:00 +4°C° 0 mm 1 m/s 752 mmHg 57%
07:00 +5°C° 0 mm 1 m/s 752 mmHg 53%
08:00 +7°C° 0 mm 1 m/s 752 mmHg 50%
09:00 +7°C° 0 mm 2 m/s 752 mmHg 47%
10:00 +8°C° 0 mm 2 m/s 752 mmHg 43%
11:00 +9°C° 0 mm 2 m/s 751 mmHg 43%
12:00 +10°C° 0 mm 2 m/s 750 mmHg 42%
13:00 +10°C° 0 mm 3 m/s 750 mmHg 41%
14:00 +10°C° 0 mm 3 m/s 749 mmHg 42%
15:00 +10°C° 0 mm 3 m/s 749 mmHg 44%
16:00 +10°C° 0 mm 3 m/s 748 mmHg 45%
17:00 +8°C° 0 mm 4 m/s 748 mmHg 50%
18:00 +7°C° 0 mm 4 m/s 748 mmHg 56%
19:00 +6°C° 0 mm 4 m/s 747 mmHg 61%
20:00 +6°C° 0 mm 4 m/s 747 mmHg 61%
21:00 +6°C° 0 mm 4 m/s 747 mmHg 61%
22:00 +5°C° 0 mm 3 m/s 747 mmHg 61%
23:00 +5°C° 0.2 mm 3 m/s 746 mmHg 66%

28 Aprilie, Miercuri

Timp Temperatura Precipitaţii Vânt Presiune Umiditate
00:00 +5°C° 0.2 mm 3 m/s 746 mmHg 71%
01:00 +4°C° 0.2 mm 3 m/s 745 mmHg 75%
02:00 +4°C° 0.4 mm 3 m/s 745 mmHg 76%
03:00 +4°C° 0.4 mm 3 m/s 744 mmHg 78%
04:00 +4°C° 0.4 mm 3 m/s 744 mmHg 79%
05:00 +4°C° 0.2 mm 3 m/s 744 mmHg 81%
06:00 +4°C° 0.2 mm 3 m/s 744 mmHg 83%
07:00 +4°C° 0.2 mm 3 m/s 744 mmHg 85%
08:00 +4°C° 0.1 mm 3 m/s 743 mmHg 87%
09:00 +5°C° 0.1 mm 3 m/s 743 mmHg 88%
10:00 +5°C° 0.1 mm 3 m/s 743 mmHg 90%
11:00 +5°C° 0.2 mm 3 m/s 743 mmHg 91%
12:00 +5°C° 0.2 mm 3 m/s 743 mmHg 92%
13:00 +6°C° 0.2 mm 2 m/s 743 mmHg 93%
14:00 +6°C° 0.2 mm 2 m/s 744 mmHg 94%
15:00 +6°C° 0.2 mm 2 m/s 744 mmHg 94%
16:00 +6°C° 0.2 mm 2 m/s 744 mmHg 95%
17:00 +6°C° 0 mm 2 m/s 744 mmHg 95%
18:00 +6°C° 0 mm 2 m/s 745 mmHg 95%
19:00 +5°C° 0 mm 2 m/s 745 mmHg 94%
20:00 +5°C° 0 mm 2 m/s 745 mmHg 94%
21:00 +5°C° 0 mm 2 m/s 746 mmHg 94%
22:00 +5°C° 0 mm 2 m/s 746 mmHg 94%
23:00 +5°C° 0 mm 2 m/s 746 mmHg 94%
Arată mai mult

Formular de consimțământ

Meteoprog și furnizorii noștri de servicii pot stoca și accesa date personale, precum cookies, identificatori de dispozitiv sau alte tehnologii similare pe dispozitivul dumneavoastră și procesa astfel de date pentru a personaliza conținutul și reclamele, dar și pentru a oferi caracteristici de social media și pentru a analiza traficul.

  • Stocarea și/sau accesarea informațiilor pe dispozitivul dumneavoastră

    Cookies, identificatori de dispozitiv sau alte informații pot fi stocate sau accesate pe dispozitiv în scopurile indicate mai sus.

  • Reclame și conținut personalizat, evaluarea reclamelor și a conținutului, informații despre audiențe și dezvoltarea produselor

    Reclamele și conținutul pot fi personalizate pe baza unui profil. Pot fi adăugate date suplimentare pentru a personaliza mai bine reclamele și conținutul. Performanța reclamelor și conținutului poate fi măsurată. Pot fi obținute informații despre utilizatorii care au văzut reclamele și conținutul. Aceste date pot fi utilizate pentru a dezvolta sau îmbunătăți experiența utilizatorilor, sistemele și software-ul.

Dând clic pe ‘Sunt de acord’, permiteți utilizarea cookie-urilor menționate, a identificatorilor de dispozitiv, balizelor web sau altor tehnologii similare. Setările pot fi modificate din browser-ul dispozitivului dumneavoastră.

În anumite scopuri, interesele legitime pot prima asupra consimțământului. Puteți citi mai multe informații în acest sens în Politica privind Confidențialitatea Datelor și Cookie.